OSCAR 7 (AO-7) (7530 NORAD) Tracking and Keplerian Element Data

This shows tracking and keplerian element data for the satellite.

Feedback or suggestion? Click here.




ElementValue
Catalog7530
NameOSCAR 7 (AO-7)
Epoch Orbit5470
Epoch Day282.86314937
Epoch Year2019
RAAN249.4198
Inclination101.7591
Eccentricity0.0012336
Argument of Perigee127.2959
Mean Anonmoly287.7712
Mean Motion12.5364026
Decay Rate-2.4E-07
L11 07530U 74089B 19282.86314937 -.00000024 00000-0 12856-3 0 9998
L22 07530 101.7591 249.4198 0012336 127.2959 287.7712 12.53640260 54707

Live tracking and technical data element details for OSCAR 7 (AO-7) (NORAD 7530). OSCAR 7 (AO-7) can be tracked NOW for your location showing map with azimuth and elevation plus other details from your city location.

Track the satellite on the map from your city or location and see movement details for azimuth, elevation, latitude, longitude, range, height, and movement on the map or in text.







IsCatalogInMostPopularTable: catalog: 7530, numindb: 1240
Update: records affected: 1



GetName: 7530 OSCAR 7 (AO-7)

Hit Count: updated at: Mon, 14 Oct 2019 01:53:02 GMT